Weather History for Denton, TX

Change the Weather History Date:

Friday, March 1, 2013

  Actual Average Record
Temperature  
Mean Temperature 42 °F -  
Max Temperature 53 °F 58 °F 93 °F (2006)
Min Temperature 30 °F 36 °F 25 °F (2009)
Degree Days  
Heating Degree Days 24    
Moisture  
Dew Point 27 °F    
Average Humidity 58    
Maximum Humidity 79    
Minimum Humidity 38    
Precipitation  
Precipitation 0.00 in - - ()
Sea Level Pressure  
Sea Level Pressure 30.26 in    
Wind  
Wind Speed 6 mph (NNW)    
Max Wind Speed 17 mph    
Max Gust Speed 24 mph    
Visibility 10 miles    
Events      
Averages and records for this station are not official NWS values.
T = Trace of Precipitation, MM = Missing Value Source: NWS Daily Summary

Daily Weather History Graph

Daily Weather History Graph

Search for Another Location

Airport:

Trip Planner

Search our weather history database for the weather conditions in past years. The results will help you decide how hot, cold, wet, or windy it might be!

Date:

Astronomy

Mar. 01, 2013 Rise Set
Actual Time 6:56 AM CST 6:26 PM CST
Civil Twilight 6:31 AM CST 6:50 PM CST
Nautical Twilight 6:03 AM CST 7:19 PM CST
Astronomical Twilight 5:34 AM CST 7:48 PM CST
Moon 10:43 PM CST (3/1) 8:59 AM CST (3/1)
Length of Visible Light 12h 19m
Length of Day
11h 29m
Waning Gibbous, 83% of the Moon is Illuminated
Mar 1
Waning Gibbous
Mar 4
Last Quarter
Mar 11
New
Mar 19
First Quarter
Mar 27
Full

Hourly Weather History & Observations

Time (CST) Temp. Windchill Dew Point Humidity Pressure Visibility Wind Dir Wind Speed Gust Speed Precip Events Conditions
12:53 AM 34.0 °F 28.8 °F 24.1 °F 67% 30.23 in 10.0 mi WNW 5.8 mph - N/A   Clear
1:53 AM 34.0 °F - 23.0 °F 64% 30.23 in 10.0 mi Calm Calm - N/A   Clear
3:53 AM 30.9 °F 27.5 °F 24.1 °F 76% 30.23 in 10.0 mi WNW 3.5 mph - N/A   Clear
6:53 AM 30.0 °F 23.2 °F 24.1 °F 79% 30.26 in 10.0 mi WNW 6.9 mph - N/A   Clear
7:53 AM 32.0 °F 28.7 °F 26.1 °F 79% 30.28 in 10.0 mi NNW 3.5 mph - N/A   Clear
8:53 AM 37.9 °F 33.5 °F 27.0 °F 65% 30.31 in 10.0 mi NNW 5.8 mph - N/A   Clear
9:53 AM 39.9 °F 34.5 °F 28.0 °F 63% 30.32 in 10.0 mi North 8.1 mph - N/A   Clear
10:53 AM 44.1 °F 40.1 °F 28.0 °F 53% 30.31 in 10.0 mi NNW 6.9 mph - N/A   Clear
11:53 AM 45.0 °F - 27.0 °F 49% 30.29 in 10.0 mi Calm Calm - N/A   Mostly Cloudy
12:53 PM 46.9 °F - 27.0 °F 46% 30.26 in 10.0 mi NNW 3.5 mph - N/A   Overcast
1:53 PM 50.0 °F - 28.0 °F 43% 30.23 in 10.0 mi North 9.2 mph - N/A   Mostly Cloudy
2:53 PM 52.0 °F - 28.0 °F 40% 30.21 in 10.0 mi Variable 6.9 mph - N/A   Clear
3:53 PM 52.0 °F - 27.0 °F 38% 30.20 in 10.0 mi NNW 8.1 mph - N/A   Mostly Cloudy
4:53 PM 53.1 °F - 28.0 °F 38% 30.21 in 10.0 mi North 13.8 mph 20.7 mph N/A   Partly Cloudy
5:53 PM 48.9 °F - 30.0 °F 48% 30.23 in 10.0 mi North 17.3 mph 24.2 mph N/A   Partly Cloudy
6:53 PM 45.0 °F 40.1 °F 28.0 °F 52% 30.25 in 10.0 mi NNW 9.2 mph - N/A   Clear
7:53 PM 44.1 °F 37.7 °F 28.9 °F 55% 30.27 in 10.0 mi NNW 12.7 mph - N/A   Clear
8:53 PM 41.0 °F 34.7 °F 28.0 °F 60% 30.28 in 10.0 mi NNW 10.4 mph - N/A   Clear
9:53 PM 39.9 °F 33.4 °F 27.0 °F 60% 30.30 in 10.0 mi North 10.4 mph - N/A   Clear
10:53 PM 37.0 °F 30.4 °F 27.0 °F 67% 30.32 in 10.0 mi North 9.2 mph - N/A   Clear
11:53 PM 35.1 °F 29.3 °F 27.0 °F 72% 30.33 in 10.0 mi NNW 6.9 mph - N/A   Clear